Location: Baia Mare
(47.6567°N, 23.5850°E)
Time: 08:01:18
(UTC+02:00)

ISS - Pass Details

Date: 26 September 2018
Orbit: 402 x 408 km, 51.6° (Epoch: 18 November)

Event Time Altitude Azimuth Distance (km) Brightness Sun altitude
Rises 21:00:30 0° 256° (WSW) 2,341 1.0 -18.2°
Reaches altitude 10° 21:02:36 10° 260° (W) 1,480 -0.1 -18.5°
Maximum altitude 21:05:54 61° 342° (NNW) 472 -3.4 -19.1°
Enters shadow 21:06:32 49° 33° (NNE) 543 -3.4 -19.2°
